![]() |
EMODnet Physics ERDDAP
Easier access to scientific data |
log in|
Brought to you by EMODnet Physics |
| Dataset Title: | NDBC - Collection of dew point temperature (DEWT) TimeSeries - IN SITU MultiPointTimeSeriesObservation
|
| Institution: | NDBC (Dataset ID: TS_DEWT_NDBC) |
| Information: | Summary
| License
| FGDC
| ISO 19115
| Metadata
| Background
| Subset
| Data Access Form
| Make a graph
|
| Name | Last modified | Size | Description | |
|---|---|---|---|---|
| Parent Directory | - | - | ||
| 46097_TS_DEWT_012017.nc | 11-Oct-2024 05:00 | 1472874 | ||
| 46097_TS_DEWT_012018.nc | 11-Oct-2024 05:46 | 1626755 | ||
| 46097_TS_DEWT_012019.nc | 11-Oct-2024 06:24 | 1626696 | ||
| 46097_TS_DEWT_012020.nc | 11-Oct-2024 07:02 | 1626974 | ||
| 46097_TS_DEWT_012021.nc | 11-Oct-2024 07:40 | 1626913 | ||
| 46097_TS_DEWT_012022.nc | 11-Oct-2024 08:08 | 1626327 | ||
| 46097_TS_DEWT_012023.nc | 11-Oct-2024 08:47 | 1626795 | ||
| 46097_TS_DEWT_022017.nc | 11-Oct-2024 05:04 | 1626187 | ||
| 46097_TS_DEWT_022018.nc | 11-Oct-2024 05:49 | 1626939 | ||
| 46097_TS_DEWT_022020.nc | 11-Oct-2024 07:06 | 1625491 | ||
| 46097_TS_DEWT_022021.nc | 11-Oct-2024 07:42 | 1626979 | ||
| 46097_TS_DEWT_022022.nc | 11-Oct-2024 08:11 | 1625310 | ||
| 46097_TS_DEWT_022023.nc | 11-Oct-2024 08:51 | 1626946 | ||
| 46097_TS_DEWT_032017.nc | 11-Oct-2024 05:07 | 1626953 | ||
| 46097_TS_DEWT_032018.nc | 11-Oct-2024 05:52 | 1626624 | ||
| 46097_TS_DEWT_032019.nc | 11-Oct-2024 06:30 | 422314 | ||
| 46097_TS_DEWT_032020.nc | 11-Oct-2024 07:09 | 1473167 | ||
| 46097_TS_DEWT_032021.nc | 11-Oct-2024 07:44 | 995557 | ||
| 46097_TS_DEWT_032022.nc | 11-Oct-2024 08:13 | 1475017 | ||
| 46097_TS_DEWT_032023.nc | 11-Oct-2024 08:55 | 1471177 | ||
| 46097_TS_DEWT_042017.nc | 11-Oct-2024 05:12 | 1477000 | ||
| 46097_TS_DEWT_042018.nc | 11-Oct-2024 05:55 | 1477088 | ||
| 46097_TS_DEWT_042019.nc | 11-Oct-2024 06:33 | 1464111 | ||
| 46097_TS_DEWT_042020.nc | 11-Oct-2024 07:12 | 1476213 | ||
| 46097_TS_DEWT_042021.nc | 11-Oct-2024 07:46 | 1476975 | ||
| 46097_TS_DEWT_042022.nc | 11-Oct-2024 08:16 | 1476778 | ||
| 46097_TS_DEWT_042023.nc | 11-Oct-2024 08:58 | 1477069 | ||
| 46097_TS_DEWT_052018.nc | 11-Oct-2024 05:58 | 1475274 | ||
| 46097_TS_DEWT_052019.nc | 11-Oct-2024 06:36 | 1476672 | ||
| 46097_TS_DEWT_052020.nc | 11-Oct-2024 07:15 | 1477044 | ||
| 46097_TS_DEWT_052021.nc | 11-Oct-2024 07:49 | 1477110 | ||
| 46097_TS_DEWT_052022.nc | 11-Oct-2024 08:19 | 1476933 | ||
| 46097_TS_DEWT_052023.nc | 11-Oct-2024 09:02 | 429451 | ||
| 46097_TS_DEWT_062017.nc | 11-Oct-2024 05:20 | 1477532 | ||
| 46097_TS_DEWT_062018.nc | 11-Oct-2024 06:01 | 1476003 | ||
| 46097_TS_DEWT_062019.nc | 11-Oct-2024 06:39 | 1476474 | ||
| 46097_TS_DEWT_062020.nc | 11-Oct-2024 07:18 | 1626755 | ||
| 46097_TS_DEWT_062021.nc | 11-Oct-2024 07:51 | 1477723 | ||
| 46097_TS_DEWT_062022.nc | 11-Oct-2024 08:23 | 1626868 | ||
| 46097_TS_DEWT_062023.nc | 11-Oct-2024 09:06 | 1626985 | ||
| 46097_TS_DEWT_072017.nc | 11-Oct-2024 05:24 | 1626517 | ||
| 46097_TS_DEWT_072018.nc | 11-Oct-2024 06:04 | 1626929 | ||
| 46097_TS_DEWT_072019.nc | 11-Oct-2024 06:43 | 1626821 | ||
| 46097_TS_DEWT_072020.nc | 11-Oct-2024 07:22 | 1626905 | ||
| 46097_TS_DEWT_072021.nc | 11-Oct-2024 07:53 | 1626911 | ||
| 46097_TS_DEWT_072022.nc | 11-Oct-2024 08:26 | 1626706 | ||
| 46097_TS_DEWT_072023.nc | 11-Oct-2024 09:10 | 1625453 | ||
| 46097_TS_DEWT_082017.nc | 11-Oct-2024 05:28 | 1626653 | ||
| 46097_TS_DEWT_082018.nc | 11-Oct-2024 06:07 | 1626575 | ||
| 46097_TS_DEWT_082019.nc | 11-Oct-2024 06:46 | 1626939 | ||
| 46097_TS_DEWT_082020.nc | 11-Oct-2024 07:25 | 429487 | ||
| 46097_TS_DEWT_082021.nc | 11-Oct-2024 07:56 | 1471200 | ||
| 46097_TS_DEWT_082022.nc | 11-Oct-2024 08:29 | 1476133 | ||
| 46097_TS_DEWT_082023.nc | 11-Oct-2024 09:14 | 1473684 | ||
| 46097_TS_DEWT_092017.nc | 11-Oct-2024 05:32 | 1476364 | ||
| 46097_TS_DEWT_092018.nc | 11-Oct-2024 06:10 | 1477110 | ||
| 46097_TS_DEWT_092019.nc | 11-Oct-2024 06:49 | 1473428 | ||
| 46097_TS_DEWT_092020.nc | 11-Oct-2024 07:29 | 1475570 | ||
| 46097_TS_DEWT_092021.nc | 11-Oct-2024 07:59 | 1474900 | ||
| 46097_TS_DEWT_092022.nc | 11-Oct-2024 08:33 | 1475899 | ||
| 46097_TS_DEWT_092023.nc | 11-Oct-2024 09:18 | 1475633 | ||
| 46097_TS_DEWT_102016.nc | 11-Oct-2024 04:50 | 1476999 | ||
| 46097_TS_DEWT_102017.nc | 11-Oct-2024 05:36 | 1476222 | ||
| 46097_TS_DEWT_102018.nc | 11-Oct-2024 06:14 | 1476389 | ||
| 46097_TS_DEWT_102019.nc | 11-Oct-2024 06:52 | 1472007 | ||
| 46097_TS_DEWT_102020.nc | 11-Oct-2024 07:32 | 1477076 | ||
| 46097_TS_DEWT_102021.nc | 11-Oct-2024 08:01 | 1477078 | ||
| 46097_TS_DEWT_102022.nc | 11-Oct-2024 08:37 | 1477088 | ||
| 46097_TS_DEWT_102023.nc | 11-Oct-2024 09:22 | 429896 | ||
| 46097_TS_DEWT_112016.nc | 11-Oct-2024 04:54 | 597425 | ||
| 46097_TS_DEWT_112017.nc | 11-Oct-2024 05:40 | 1625969 | ||
| 46097_TS_DEWT_112018.nc | 11-Oct-2024 06:17 | 1463126 | ||
| 46097_TS_DEWT_112019.nc | 11-Oct-2024 06:55 | 1466801 | ||
| 46097_TS_DEWT_112020.nc | 11-Oct-2024 07:35 | 1626921 | ||
| 46097_TS_DEWT_112021.nc | 11-Oct-2024 08:03 | 1626842 | ||
| 46097_TS_DEWT_112022.nc | 11-Oct-2024 08:40 | 1626885 | ||
| 46097_TS_DEWT_112023.nc | 11-Oct-2024 09:26 | 1625042 | ||
| 46097_TS_DEWT_122016.nc | 11-Oct-2024 04:57 | 1626233 | ||
| 46097_TS_DEWT_122017.nc | 11-Oct-2024 05:43 | 1626763 | ||
| 46097_TS_DEWT_122018.nc | 11-Oct-2024 06:21 | 1471121 | ||
| 46097_TS_DEWT_122019.nc | 11-Oct-2024 06:59 | 1477425 | ||
| 46097_TS_DEWT_122021.nc | 11-Oct-2024 08:06 | 1626867 | ||
| 46097_TS_DEWT_122022.nc | 11-Oct-2024 08:43 | 1626253 | ||
| 46097_TS_DEWT_122023.nc | 11-Oct-2024 09:30 | 1474823 | ||